Retour au catalogue

BREEZE-M DEB

ActifHEO
NORAD 38651·DEBRIS·🇷🇺 Russia

Lancé Mar 14, 2008 depuis Baikonur Cosmodrome

Loading…

Prochains Passages (prochaines 24 heures)

TLE

FraisSource: Space-Track

Époque: Sep 14, 2026, 14:19 UTC

1 38651U 08011DA  26257.59690764 -.00000107  00000-0 -16914-3 0  9995
2 38651  49.2717  14.6390 6369358 219.1201  74.6151  3.06140160177611

Suivez BREEZE-M DEB en temps réel avec AllMySat

Download on the App Store